• In Russia
  • List of Countries
  • For 7 days
  • Water Temperature
  • Weather Map
  • Weather Widgets
  • user-avatar
    Login

    Hourly Weather Medellín

    Today, 23 September, Monday

    Time Temperature Precipitation Wind Pressure Humidity
    00:00 +13°C° 1.7 mm 0 mps 587 mmHg 96%
    01:00 +14°C° 0 mm 1 mps 587 mmHg 96%
    02:00 +12°C° 2.3 mm 0 mps 587 mmHg 96%
    03:00 +12°C° 2.3 mm 0 mps 586 mmHg 97%
    04:00 +12°C° 2.3 mm 0 mps 586 mmHg 97%
    05:00 +12°C° 0.6 mm 0 mps 587 mmHg 96%
    06:00 +12°C° 0.6 mm 0 mps 587 mmHg 96%
    07:00 +12°C° 0.6 mm 0 mps 587 mmHg 95%
    08:00 +15°C° 0.1 mm 0 mps 588 mmHg 84%
    09:00 +17°C° 0.1 mm 0 mps 589 mmHg 73%
    10:00 +22°C° 0.1 mm 1 mps 591 mmHg 63%
    11:00 +22°C° 1 mm 1 mps 590 mmHg 66%
    12:00 +22°C° 1 mm 1 mps 589 mmHg 68%
    13:00 +23°C° 1 mm 1 mps 589 mmHg 71%
    14:00 +20°C° 1.3 mm 0 mps 588 mmHg 74%
    15:00 +20°C° 1.3 mm 0 mps 587 mmHg 76%
    16:00 +19°C° 1.3 mm 0 mps 587 mmHg 78%
    17:00 +17°C° 1.4 mm 0 mps 586 mmHg 83%
    18:00 +16°C° 1.4 mm 0 mps 586 mmHg 89%
    19:00 +14°C° 1.4 mm 0 mps 586 mmHg 94%
    20:00 +13°C° 1.4 mm 0 mps 586 mmHg 95%
    21:00 +13°C° 1.4 mm 0 mps 586 mmHg 95%
    22:00 +13°C° 1.4 mm 0 mps 586 mmHg 96%
    23:00 +13°C° 0.8 mm 0 mps 586 mmHg 96%

    Tomorrow, 24 September, Tuesday

    Time Temperature Precipitation Wind Pressure Humidity
    00:00 +13°C° 0.8 mm 0 mps 586 mmHg 96%
    01:00 +13°C° 0.8 mm 0 mps 586 mmHg 96%
    02:00 +13°C° 0.6 mm 0 mps 586 mmHg 96%
    03:00 +12°C° 0.6 mm 0 mps 586 mmHg 97%
    04:00 +12°C° 0.6 mm 0 mps 586 mmHg 97%
    05:00 +13°C° 0.7 mm 0 mps 586 mmHg 97%
    06:00 +13°C° 0.7 mm 0 mps 586 mmHg 97%
    07:00 +13°C° 0.7 mm 0 mps 587 mmHg 97%
    08:00 +14°C° 0.2 mm 0 mps 587 mmHg 94%
    09:00 +15°C° 0.2 mm 0 mps 588 mmHg 91%
    10:00 +15°C° 0.2 mm 0 mps 588 mmHg 88%
    11:00 +17°C° 0.2 mm 0 mps 589 mmHg 79%
    12:00 +19°C° 0.2 mm 0 mps 589 mmHg 69%
    13:00 +23°C° 0.2 mm 1 mps 589 mmHg 59%
    14:00 +20°C° 1.1 mm 0 mps 588 mmHg 66%
    15:00 +19°C° 1.1 mm 0 mps 588 mmHg 74%
    16:00 +18°C° 1.1 mm 0 mps 587 mmHg 81%
    17:00 +17°C° 1.3 mm 0 mps 587 mmHg 85%
    18:00 +16°C° 1.3 mm 0 mps 586 mmHg 89%
    19:00 +14°C° 1.3 mm 0 mps 586 mmHg 93%
    20:00 +14°C° 2.1 mm 0 mps 587 mmHg 94%
    21:00 +14°C° 2.1 mm 0 mps 587 mmHg 95%
    22:00 +13°C° 2.1 mm 0 mps 587 mmHg 96%
    23:00 +13°C° 3.2 mm 0 mps 587 mmHg 97%

    Day after tomorrow, 25 September, Wednesday

    Time Temperature Precipitation Wind Pressure Humidity
    00:00 +13°C° 3.2 mm 0 mps 587 mmHg 97%
    01:00 +12°C° 3.2 mm 0 mps 586 mmHg 97%
    02:00 +12°C° 0.9 mm 0 mps 586 mmHg 97%
    03:00 +12°C° 0.9 mm 0 mps 586 mmHg 97%
    04:00 +12°C° 0.9 mm 0 mps 586 mmHg 97%
    05:00 +12°C° 0 mm 0 mps 586 mmHg 96%
    06:00 +13°C° 0 mm 0 mps 587 mmHg 95%
    07:00 +13°C° 0 mm 0 mps 587 mmHg 94%
    08:00 +15°C° 0.1 mm 0 mps 588 mmHg 86%
    09:00 +17°C° 0.1 mm 0 mps 589 mmHg 79%
    10:00 +18°C° 0.1 mm 0 mps 590 mmHg 71%
    11:00 +19°C° 0.6 mm 0 mps 590 mmHg 70%
    12:00 +20°C° 0.6 mm 0 mps 589 mmHg 69%
    13:00 +21°C° 0.6 mm 0 mps 589 mmHg 68%
    14:00 +20°C° 1.3 mm 0 mps 588 mmHg 71%
    15:00 +19°C° 1.3 mm 0 mps 587 mmHg 74%
    16:00 +19°C° 1.3 mm 0 mps 587 mmHg 78%
    17:00 +17°C° 0.9 mm 0 mps 586 mmHg 83%
    18:00 +16°C° 0.9 mm 1 mps 586 mmHg 88%
    19:00 +15°C° 0.9 mm 1 mps 585 mmHg 93%
    20:00 +14°C° 0.8 mm 1 mps 586 mmHg 94%
    21:00 +14°C° 0.8 mm 1 mps 586 mmHg 94%
    22:00 +14°C° 0.8 mm 1 mps 587 mmHg 95%
    23:00 +14°C° 1.7 mm 1 mps 587 mmHg 95%

    26 September, Thursday

    Time Temperature Precipitation Wind Pressure Humidity
    00:00 +13°C° 1.7 mm 0 mps 586 mmHg 96%
    01:00 +13°C° 1.7 mm 0 mps 586 mmHg 97%
    02:00 +12°C° 2.4 mm 0 mps 586 mmHg 97%
    03:00 +12°C° 2.4 mm 0 mps 586 mmHg 97%
    04:00 +12°C° 2.4 mm 0 mps 586 mmHg 98%
    05:00 +12°C° 0.5 mm 0 mps 586 mmHg 97%
    06:00 +13°C° 0.5 mm 0 mps 587 mmHg 97%
    07:00 +13°C° 0.5 mm 0 mps 587 mmHg 97%
    08:00 +15°C° 0.1 mm 0 mps 588 mmHg 88%
    09:00 +17°C° 0.1 mm 0 mps 589 mmHg 79%
    10:00 +19°C° 0.1 mm 0 mps 590 mmHg 70%
    11:00 +19°C° 0.9 mm 0 mps 589 mmHg 71%
    12:00 +20°C° 0.9 mm 0 mps 589 mmHg 72%
    13:00 +20°C° 0.9 mm 0 mps 588 mmHg 73%
    14:00 +22°C° 1.1 mm 1 mps 587 mmHg 76%
    15:00 +21°C° 1.1 mm 1 mps 587 mmHg 79%
    16:00 +20°C° 1.1 mm 1 mps 586 mmHg 81%
    17:00 +19°C° 1.2 mm 1 mps 586 mmHg 86%
    18:00 +16°C° 1.2 mm 1 mps 586 mmHg 91%
    19:00 +14°C° 1.2 mm 0 mps 585 mmHg 95%
    20:00 +13°C° 1 mm 0 mps 586 mmHg 95%
    21:00 +13°C° 1 mm 0 mps 586 mmHg 95%
    22:00 +13°C° 1 mm 0 mps 586 mmHg 95%
    23:00 +13°C° 0.6 mm 0 mps 586 mmHg 96%

    27 September, Friday

    Time Temperature Precipitation Wind Pressure Humidity
    00:00 +13°C° 0.6 mm 0 mps 586 mmHg 96%
    01:00 +13°C° 0.6 mm 0 mps 586 mmHg 96%
    02:00 +13°C° 1.1 mm 0 mps 586 mmHg 97%
    03:00 +13°C° 1.1 mm 0 mps 586 mmHg 97%
    04:00 +13°C° 1.1 mm 0 mps 586 mmHg 98%
    05:00 +13°C° 0.4 mm 0 mps 586 mmHg 97%
    06:00 +13°C° 0.4 mm 0 mps 587 mmHg 97%
    07:00 +13°C° 0.4 mm 0 mps 587 mmHg 96%
    08:00 +15°C° 0.9 mm 0 mps 588 mmHg 93%
    09:00 +16°C° 0.9 mm 0 mps 589 mmHg 90%
    10:00 +19°C° 0.9 mm 1 mps 589 mmHg 87%
    11:00 +20°C° 1.2 mm 1 mps 589 mmHg 83%
    12:00 +21°C° 1.2 mm 1 mps 589 mmHg 79%
    13:00 +22°C° 1.2 mm 1 mps 588 mmHg 75%
    14:00 +21°C° 1.2 mm 1 mps 588 mmHg 79%
    15:00 +21°C° 1.2 mm 1 mps 587 mmHg 82%
    16:00 +20°C° 1.2 mm 1 mps 587 mmHg 86%
    17:00 +18°C° 1.2 mm 1 mps 586 mmHg 89%
    18:00 +16°C° 1.2 mm 1 mps 586 mmHg 92%
    19:00 +15°C° 1.2 mm 1 mps 586 mmHg 96%
    20:00 +15°C° 0.9 mm 1 mps 586 mmHg 96%
    21:00 +14°C° 0.9 mm 1 mps 586 mmHg 96%
    22:00 +13°C° 0.9 mm 0 mps 587 mmHg 96%
    23:00 +13°C° 0.6 mm 0 mps 586 mmHg 96%

    28 September, Saturday

    Time Temperature Precipitation Wind Pressure Humidity
    00:00 +13°C° 0.6 mm 0 mps 586 mmHg 96%
    01:00 +13°C° 0.6 mm 0 mps 586 mmHg 96%
    02:00 +13°C° 1.5 mm 0 mps 586 mmHg 97%
    03:00 +13°C° 1.5 mm 0 mps 586 mmHg 97%
    04:00 +13°C° 1.5 mm 0 mps 586 mmHg 97%
    05:00 +13°C° 0.6 mm 0 mps 586 mmHg 97%
    06:00 +13°C° 0.6 mm 0 mps 587 mmHg 97%
    07:00 +13°C° 0.6 mm 0 mps 587 mmHg 96%
    08:00 +15°C° 0.2 mm 0 mps 588 mmHg 88%
    09:00 +17°C° 0.2 mm 0 mps 589 mmHg 79%
    10:00 +19°C° 0.2 mm 0 mps 590 mmHg 71%
    11:00 +19°C° 1.2 mm 0 mps 589 mmHg 73%
    12:00 +22°C° 1.2 mm 1 mps 589 mmHg 74%
    13:00 +22°C° 1.2 mm 1 mps 588 mmHg 76%
    14:00 +21°C° 1.7 mm 1 mps 587 mmHg 79%
    15:00 +19°C° 1.7 mm 0 mps 587 mmHg 82%
    16:00 +18°C° 1.7 mm 0 mps 586 mmHg 85%
    17:00 +16°C° 1 mm 0 mps 586 mmHg 88%
    18:00 +15°C° 1 mm 0 mps 585 mmHg 91%
    19:00 +13°C° 1 mm 0 mps 585 mmHg 95%
    20:00 +13°C° 0.3 mm 0 mps 585 mmHg 95%
    21:00 +13°C° 0.3 mm 0 mps 585 mmHg 95%
    22:00 +12°C° 0.3 mm 0 mps 586 mmHg 95%
    23:00 +12°C° 0.1 mm 0 mps 585 mmHg 95%
    Show more